• în România
  • Lista ţărilor
  • Pe 7 zile
  • Temperatura apei
  • Hartă satelitară
  • Meteo pe hartă
  • Widget-uri
  • user-avatar
    Intrare

    Meteo pe oră la Senkovo

    Astăzi, 21 Aprilie, Sâmbătă

    Timp Temperatura Precipitaţii Vânt Presiune Umiditate
    00:00 +9°C° 0 mm 3 m/s 737 mmHg 81%
    01:00 +9°C° 0 mm 3 m/s 736 mmHg 85%
    02:00 +9°C° 0 mm 3 m/s 736 mmHg 90%
    03:00 +8°C° 0 mm 4 m/s 735 mmHg 91%
    04:00 +8°C° 0 mm 4 m/s 734 mmHg 92%
    05:00 +8°C° 0 mm 4 m/s 733 mmHg 93%
    06:00 +10°C° 0 mm 4 m/s 732 mmHg 87%
    07:00 +10°C° 0 mm 5 m/s 731 mmHg 81%
    08:00 +12°C° 0 mm 5 m/s 730 mmHg 75%
    09:00 +13°C° 0 mm 6 m/s 729 mmHg 73%
    10:00 +14°C° 0 mm 6 m/s 728 mmHg 71%
    11:00 +15°C° 0 mm 6 m/s 727 mmHg 70%
    12:00 +15°C° 0,6 mm 7 m/s 726 mmHg 67%
    13:00 +15°C° 0,6 mm 8 m/s 726 mmHg 64%
    14:00 +15°C° 0,6 mm 8 m/s 726 mmHg 61%
    15:00 +13°C° 0,2 mm 8 m/s 726 mmHg 61%
    16:00 +11°C° 0,2 mm 9 m/s 727 mmHg 61%
    17:00 +8°C° 0,2 mm 9 m/s 727 mmHg 61%
    18:00 +7°C° 0 mm 8 m/s 728 mmHg 64%
    19:00 +6°C° 0 mm 7 m/s 728 mmHg 66%
    20:00 +7°C° 0 mm 6 m/s 729 mmHg 69%
    21:00 +5°C° 0 mm 6 m/s 729 mmHg 71%
    22:00 +5°C° 0 mm 6 m/s 729 mmHg 73%
    23:00 +4°C° 0 mm 6 m/s 730 mmHg 75%

    Mâine, 22 Aprilie, Duminică

    Timp Temperatura Precipitaţii Vânt Presiune Umiditate
    00:00 +5°C° 0 mm 5 m/s 730 mmHg 76%
    01:00 +5°C° 0 mm 5 m/s 730 mmHg 76%
    02:00 +5°C° 0 mm 5 m/s 731 mmHg 77%
    03:00 +5°C° 0,1 mm 5 m/s 731 mmHg 78%
    04:00 +3°C° 0,1 mm 5 m/s 731 mmHg 80%
    05:00 +3°C° 0,1 mm 5 m/s 731 mmHg 81%
    06:00 +3°C° 0,2 mm 5 m/s 731 mmHg 81%
    07:00 +3°C° 0,2 mm 5 m/s 732 mmHg 80%
    08:00 +3°C° 0,2 mm 5 m/s 732 mmHg 80%
    09:00 +5°C° 0,1 mm 5 m/s 732 mmHg 77%
    10:00 +5°C° 0,1 mm 5 m/s 733 mmHg 75%
    11:00 +5°C° 0,1 mm 4 m/s 733 mmHg 73%
    12:00 +5°C° 0,1 mm 5 m/s 733 mmHg 70%
    13:00 +5°C° 0,1 mm 5 m/s 734 mmHg 68%
    14:00 +6°C° 0,1 mm 5 m/s 734 mmHg 66%
    15:00 +5°C° 0 mm 5 m/s 734 mmHg 65%
    16:00 +5°C° 0 mm 4 m/s 735 mmHg 65%
    17:00 +5°C° 0 mm 4 m/s 735 mmHg 64%
    18:00 +4°C° 0 mm 3 m/s 736 mmHg 69%
    19:00 +2°C° 0 mm 3 m/s 736 mmHg 74%
    20:00 +2°C° 0 mm 2 m/s 737 mmHg 78%
    21:00 +1°C° 0 mm 2 m/s 737 mmHg 81%
    22:00 -1°C° 0 mm 2 m/s 737 mmHg 83%
    23:00 -1°C° 0 mm 2 m/s 738 mmHg 85%

    Poimâine, 23 Aprilie, Luni

    Timp Temperatura Precipitaţii Vânt Presiune Umiditate
    00:00 0°C° 0 mm 1 m/s 738 mmHg 84%
    01:00 0°C° 0 mm 1 m/s 739 mmHg 84%
    02:00 -1°C° 0 mm 1 m/s 739 mmHg 84%
    03:00 -1°C° 0 mm 1 m/s 739 mmHg 82%
    04:00 -1°C° 0 mm 1 m/s 740 mmHg 81%
    05:00 -1°C° 0 mm 1 m/s 740 mmHg 80%
    06:00 -2°C° 0 mm 2 m/s 740 mmHg 70%
    07:00 +1°C° 0 mm 2 m/s 741 mmHg 60%
    08:00 +3°C° 0 mm 2 m/s 741 mmHg 49%
    09:00 +4°C° 0 mm 2 m/s 741 mmHg 44%
    10:00 +5°C° 0 mm 2 m/s 741 mmHg 39%
    11:00 +7°C° 0 mm 2 m/s 741 mmHg 34%
    12:00 +9°C° 0 mm 1 m/s 741 mmHg 32%
    13:00 +9°C° 0 mm 1 m/s 741 mmHg 31%
    14:00 +10°C° 0 mm 1 m/s 741 mmHg 30%
    15:00 +10°C° 0 mm 1 m/s 740 mmHg 31%
    16:00 +9°C° 0 mm 1 m/s 740 mmHg 33%
    17:00 +9°C° 0 mm 1 m/s 740 mmHg 34%
    18:00 +7°C° 0 mm 1 m/s 740 mmHg 40%
    19:00 +4°C° 0 mm 0 m/s 740 mmHg 46%
    20:00 +2°C° 0 mm 0 m/s 740 mmHg 52%
    21:00 +3°C° 0 mm 1 m/s 740 mmHg 54%
    22:00 +2°C° 0 mm 1 m/s 740 mmHg 56%
    23:00 +2°C° 0 mm 1 m/s 740 mmHg 58%

    24 Aprilie, Marţi

    Timp Temperatura Precipitaţii Vânt Presiune Umiditate
    00:00 +1°C° 0 mm 2 m/s 739 mmHg 59%
    01:00 +1°C° 0 mm 2 m/s 739 mmHg 61%
    02:00 -1°C° 0 mm 2 m/s 739 mmHg 62%
    03:00 +1°C° 0 mm 2 m/s 738 mmHg 61%
    04:00 +1°C° 0 mm 2 m/s 738 mmHg 61%
    05:00 +2°C° 0 mm 2 m/s 738 mmHg 60%
    06:00 +2°C° 0,1 mm 3 m/s 737 mmHg 60%
    07:00 +3°C° 0,1 mm 3 m/s 737 mmHg 60%
    08:00 +4°C° 0,1 mm 3 m/s 737 mmHg 60%
    09:00 +4°C° 0,3 mm 3 m/s 737 mmHg 64%
    10:00 +5°C° 0,3 mm 4 m/s 736 mmHg 67%
    11:00 +5°C° 0,3 mm 4 m/s 736 mmHg 71%
    12:00 +6°C° 0,2 mm 4 m/s 736 mmHg 73%
    13:00 +6°C° 0,2 mm 4 m/s 736 mmHg 75%
    14:00 +6°C° 0,2 mm 4 m/s 735 mmHg 77%
    15:00 +6°C° 0,3 mm 4 m/s 735 mmHg 81%
    16:00 +7°C° 0,3 mm 3 m/s 735 mmHg 84%
    17:00 +5°C° 0,3 mm 3 m/s 734 mmHg 88%
    18:00 +5°C° 0,1 mm 3 m/s 734 mmHg 90%
    19:00 +5°C° 0,1 mm 3 m/s 734 mmHg 92%
    20:00 +5°C° 0,1 mm 3 m/s 734 mmHg 94%
    21:00 +5°C° 0,1 mm 3 m/s 734 mmHg 94%
    22:00 +5°C° 0,1 mm 3 m/s 734 mmHg 95%
    23:00 +5°C° 0,1 mm 2 m/s 733 mmHg 96%

    25 Aprilie, Miercuri

    Timp Temperatura Precipitaţii Vânt Presiune Umiditate
    00:00 +5°C° 0 mm 2 m/s 733 mmHg 96%
    01:00 +5°C° 0 mm 2 m/s 733 mmHg 96%
    02:00 +4°C° 0 mm 2 m/s 733 mmHg 96%
    03:00 +4°C° 0 mm 2 m/s 733 mmHg 96%
    04:00 +3°C° 0 mm 2 m/s 733 mmHg 96%
    05:00 +3°C° 0 mm 2 m/s 733 mmHg 96%
    06:00 +3°C° 0,2 mm 3 m/s 732 mmHg 94%
    07:00 +4°C° 0,2 mm 4 m/s 732 mmHg 91%
    08:00 +5°C° 0,2 mm 4 m/s 732 mmHg 88%
    09:00 +6°C° 0,2 mm 4 m/s 731 mmHg 86%
    10:00 +7°C° 0,2 mm 5 m/s 731 mmHg 84%
    11:00 +7°C° 0,2 mm 5 m/s 731 mmHg 82%
    12:00 +8°C° 0,3 mm 5 m/s 731 mmHg 74%
    13:00 +9°C° 0,3 mm 6 m/s 731 mmHg 67%
    14:00 +10°C° 0,3 mm 6 m/s 731 mmHg 59%
    15:00 +10°C° 0,3 mm 5 m/s 731 mmHg 63%
    16:00 +9°C° 0,3 mm 5 m/s 731 mmHg 66%
    17:00 +8°C° 0,3 mm 4 m/s 730 mmHg 69%
    18:00 +8°C° 0,3 mm 3 m/s 730 mmHg 77%
    19:00 +7°C° 0,3 mm 3 m/s 730 mmHg 84%
    20:00 +6°C° 0,3 mm 2 m/s 730 mmHg 91%
    21:00 +6°C° 0,1 mm 2 m/s 730 mmHg 92%
    22:00 +5°C° 0,1 mm 2 m/s 731 mmHg 93%
    23:00 +4°C° 0,1 mm 3 m/s 731 mmHg 93%

    26 Aprilie, Joi

    Timp Temperatura Precipitaţii Vânt Presiune Umiditate
    00:00 +4°C° 0 mm 3 m/s 731 mmHg 94%
    01:00 +3°C° 0 mm 3 m/s 731 mmHg 94%
    02:00 +3°C° 0 mm 3 m/s 731 mmHg 94%
    03:00 +2°C° 0 mm 3 m/s 731 mmHg 95%
    04:00 +2°C° 0 mm 3 m/s 731 mmHg 95%
    05:00 +2°C° 0 mm 3 m/s 731 mmHg 96%
    06:00 +3°C° 0 mm 3 m/s 731 mmHg 92%
    07:00 +4°C° 0 mm 3 m/s 731 mmHg 88%
    08:00 +5°C° 0 mm 3 m/s 732 mmHg 84%
    09:00 +6°C° 0,1 mm 4 m/s 732 mmHg 78%
    10:00 +8°C° 0,1 mm 4 m/s 732 mmHg 71%
    11:00 +10°C° 0,1 mm 4 m/s 732 mmHg 65%
    12:00 +10°C° 0,4 mm 4 m/s 732 mmHg 63%
    13:00 +11°C° 0,4 mm 4 m/s 732 mmHg 60%
    14:00 +11°C° 0,4 mm 4 m/s 732 mmHg 58%
    15:00 +11°C° 0,2 mm 4 m/s 733 mmHg 59%
    16:00 +11°C° 0,2 mm 4 m/s 733 mmHg 61%
    17:00 +11°C° 0,2 mm 4 m/s 733 mmHg 62%
    18:00 +9°C° 0,2 mm 3 m/s 734 mmHg 69%
    19:00 +8°C° 0,2 mm 3 m/s 734 mmHg 76%
    20:00 +7°C° 0,2 mm 2 m/s 735 mmHg 83%
    21:00 +6°C° 0 mm 2 m/s 735 mmHg 85%
    22:00 +5°C° 0 mm 3 m/s 735 mmHg 87%
    23:00 +4°C° 0 mm 3 m/s 736 mmHg 90%
    Arată mai mult